When you browse on this site, cookies collect data to enhance your experience and personalize the content and advertising you see.
Visit our Privacy Policy to learn more. By continuing to use the site, you agree to this use of cookies and data.
  • In Hungary
  • List of Countries
  • For 7 days
  • Water Temperature
  • Satellite Maps
  • Weather Map
  • News
  • Weather Widgets
  • user-avatar
    Login

    Hourly Weather Lees Summit

    Today, 21 February, Thursday

    Time Temperature Precipitation Wind Pressure Humidity
    00:00 -5°C° 0 mm 3 mps 735 mmHg 88%
    01:00 -4°C° 0 mm 2 mps 736 mmHg 88%
    02:00 -4°C° 0 mm 2 mps 736 mmHg 88%
    03:00 -5°C° 0 mm 2 mps 736 mmHg 87%
    04:00 -3°C° 0 mm 1 mps 737 mmHg 86%
    05:00 -3°C° 0 mm 1 mps 737 mmHg 85%
    06:00 -4°C° 0 mm 0 mps 737 mmHg 84%
    07:00 -2°C° 0 mm 1 mps 738 mmHg 83%
    08:00 -1°C° 0 mm 1 mps 738 mmHg 83%
    09:00 0°C° 0 mm 1 mps 739 mmHg 83%
    10:00 -1°C° 0 mm 2 mps 739 mmHg 85%
    11:00 +1°C° 0 mm 2 mps 739 mmHg 87%
    12:00 +1°C° 0 mm 3 mps 739 mmHg 89%
    13:00 +1°C° 0 mm 3 mps 739 mmHg 86%
    14:00 +1°C° 0 mm 4 mps 739 mmHg 82%
    15:00 +1°C° 0 mm 4 mps 739 mmHg 78%
    16:00 0°C° 0 mm 4 mps 739 mmHg 82%
    17:00 -1°C° 0 mm 4 mps 738 mmHg 85%
    18:00 -1°C° 0 mm 3 mps 738 mmHg 89%
    19:00 -1°C° 0 mm 3 mps 739 mmHg 89%
    20:00 -1°C° 0 mm 3 mps 739 mmHg 89%
    21:00 -3°C° 0 mm 4 mps 739 mmHg 89%
    22:00 -2°C° 0 mm 3 mps 740 mmHg 89%
    23:00 -2°C° 0 mm 3 mps 740 mmHg 90%

    Tomorrow, 22 February, Friday

    Time Temperature Precipitation Wind Pressure Humidity
    00:00 -2°C° 0 mm 3 mps 740 mmHg 90%
    01:00 -2°C° 0 mm 3 mps 740 mmHg 89%
    02:00 -4°C° 0 mm 3 mps 740 mmHg 89%
    03:00 -4°C° 0 mm 4 mps 740 mmHg 89%
    04:00 -4°C° 0 mm 4 mps 740 mmHg 88%
    05:00 -4°C° 0 mm 4 mps 740 mmHg 88%
    06:00 -4°C° 0 mm 4 mps 740 mmHg 87%
    07:00 -3°C° 0 mm 4 mps 740 mmHg 86%
    08:00 -2°C° 0 mm 4 mps 740 mmHg 85%
    09:00 -1°C° 0 mm 5 mps 740 mmHg 84%
    10:00 -1°C° 0 mm 4 mps 740 mmHg 85%
    11:00 0°C° 0 mm 4 mps 740 mmHg 87%
    12:00 0°C° 0 mm 4 mps 739 mmHg 88%
    13:00 +1°C° 0 mm 4 mps 739 mmHg 89%
    14:00 +1°C° 0 mm 4 mps 738 mmHg 91%
    15:00 +3°C° 0 mm 4 mps 737 mmHg 92%
    16:00 +1°C° 0 mm 4 mps 737 mmHg 94%
    17:00 +1°C° 0 mm 4 mps 736 mmHg 95%
    18:00 +1°C° 0 mm 4 mps 736 mmHg 96%
    19:00 +1°C° 0.1 mm 4 mps 736 mmHg 97%
    20:00 +1°C° 0.1 mm 4 mps 735 mmHg 97%
    21:00 +1°C° 0.1 mm 4 mps 735 mmHg 97%
    22:00 +1°C° 1.6 mm 4 mps 734 mmHg 97%
    23:00 +3°C° 1.6 mm 3 mps 734 mmHg 98%

    Day after tomorrow, 23 February, Saturday

    Time Temperature Precipitation Wind Pressure Humidity
    00:00 +3°C° 1.6 mm 3 mps 733 mmHg 98%
    01:00 +3°C° 2.4 mm 3 mps 733 mmHg 98%
    02:00 +3°C° 2.4 mm 3 mps 732 mmHg 98%
    03:00 +3°C° 2.4 mm 3 mps 731 mmHg 98%
    04:00 +3°C° 0.1 mm 3 mps 730 mmHg 98%
    05:00 +4°C° 0.1 mm 3 mps 730 mmHg 99%
    06:00 +5°C° 0.1 mm 2 mps 729 mmHg 99%
    07:00 +4°C° 0.2 mm 3 mps 729 mmHg 99%
    08:00 +5°C° 0.2 mm 3 mps 728 mmHg 98%
    09:00 +5°C° 0.2 mm 3 mps 728 mmHg 98%
    10:00 +6°C° 1.1 mm 4 mps 726 mmHg 98%
    11:00 +8°C° 1.1 mm 4 mps 724 mmHg 98%
    12:00 +9°C° 1.1 mm 5 mps 722 mmHg 97%
    13:00 +10°C° 1.6 mm 6 mps 721 mmHg 82%
    14:00 +12°C° 1.6 mm 7 mps 719 mmHg 67%
    15:00 +13°C° 1.6 mm 8 mps 718 mmHg 52%
    16:00 +12°C° 0 mm 7 mps 718 mmHg 54%
    17:00 +10°C° 0 mm 7 mps 717 mmHg 56%
    18:00 +9°C° 0 mm 6 mps 717 mmHg 59%
    19:00 +6°C° 0 mm 7 mps 718 mmHg 67%
    20:00 +3°C° 0 mm 9 mps 719 mmHg 76%
    21:00 +2°C° 0 mm 10 mps 720 mmHg 84%
    22:00 +1°C° 0 mm 10 mps 722 mmHg 82%
    23:00 -1°C° 0 mm 11 mps 725 mmHg 79%

    24 February, Sunday

    Time Temperature Precipitation Wind Pressure Humidity
    00:00 -1°C° 0 mm 11 mps 727 mmHg 77%
    01:00 -2°C° 0 mm 10 mps 729 mmHg 74%
    02:00 -3°C° 0 mm 10 mps 730 mmHg 71%
    03:00 -3°C° 0 mm 9 mps 732 mmHg 68%
    04:00 -4°C° 0 mm 8 mps 733 mmHg 67%
    05:00 -3°C° 0 mm 7 mps 734 mmHg 66%
    06:00 -4°C° 0 mm 7 mps 735 mmHg 65%
    07:00 -3°C° 0 mm 7 mps 737 mmHg 63%
    08:00 -3°C° 0 mm 7 mps 738 mmHg 62%
    09:00 -2°C° 0 mm 7 mps 739 mmHg 60%
    10:00 -1°C° 0 mm 7 mps 739 mmHg 57%
    11:00 +2°C° 0 mm 7 mps 740 mmHg 54%
    12:00 +3°C° 0 mm 7 mps 740 mmHg 51%
    13:00 +3°C° 0 mm 7 mps 740 mmHg 49%
    14:00 +3°C° 0 mm 7 mps 741 mmHg 48%
    15:00 +3°C° 0 mm 7 mps 741 mmHg 46%
    16:00 +2°C° 0 mm 6 mps 741 mmHg 50%
    17:00 +1°C° 0 mm 5 mps 742 mmHg 54%
    18:00 -1°C° 0 mm 4 mps 742 mmHg 58%
    19:00 -2°C° 0 mm 4 mps 743 mmHg 61%
    20:00 -2°C° 0 mm 3 mps 743 mmHg 63%
    21:00 -4°C° 0 mm 3 mps 744 mmHg 66%
    22:00 -5°C° 0 mm 3 mps 744 mmHg 65%
    23:00 -5°C° 0 mm 3 mps 745 mmHg 65%

    25 February, Monday

    Time Temperature Precipitation Wind Pressure Humidity
    00:00 -6°C° 0 mm 3 mps 745 mmHg 64%
    01:00 -6°C° 0 mm 3 mps 745 mmHg 64%
    02:00 -5°C° 0 mm 2 mps 745 mmHg 63%
    03:00 -5°C° 0 mm 2 mps 745 mmHg 63%
    04:00 -6°C° 0 mm 2 mps 745 mmHg 63%
    05:00 -6°C° 0 mm 2 mps 745 mmHg 63%
    06:00 -6°C° 0 mm 2 mps 745 mmHg 63%
    07:00 -5°C° 0 mm 2 mps 744 mmHg 60%
    08:00 -5°C° 0 mm 3 mps 744 mmHg 57%
    09:00 -5°C° 0 mm 3 mps 744 mmHg 54%
    10:00 -1°C° 0 mm 3 mps 744 mmHg 50%
    11:00 +1°C° 0 mm 3 mps 743 mmHg 45%
    12:00 +4°C° 0 mm 4 mps 743 mmHg 40%
    13:00 +5°C° 0 mm 4 mps 742 mmHg 41%
    14:00 +7°C° 0 mm 5 mps 741 mmHg 43%
    15:00 +9°C° 0 mm 5 mps 740 mmHg 44%
    16:00 +8°C° 0 mm 4 mps 739 mmHg 52%
    17:00 +7°C° 0 mm 3 mps 739 mmHg 60%
    18:00 +6°C° 0 mm 2 mps 738 mmHg 68%
    19:00 +4°C° 0 mm 3 mps 738 mmHg 71%
    20:00 +4°C° 0 mm 3 mps 738 mmHg 73%
    21:00 +3°C° 0 mm 3 mps 738 mmHg 76%
    22:00 +3°C° 0 mm 4 mps 738 mmHg 77%
    23:00 +3°C° 0 mm 4 mps 738 mmHg 79%

    26 February, Tuesday

    Time Temperature Precipitation Wind Pressure Humidity
    00:00 +3°C° 0 mm 5 mps 737 mmHg 81%
    01:00 +3°C° 0 mm 5 mps 737 mmHg 81%
    02:00 +3°C° 0 mm 5 mps 737 mmHg 82%
    03:00 +3°C° 0 mm 5 mps 737 mmHg 82%
    04:00 +3°C° 0 mm 5 mps 737 mmHg 82%
    05:00 +2°C° 0 mm 5 mps 736 mmHg 82%
    06:00 +2°C° 0 mm 5 mps 736 mmHg 82%
    07:00 +3°C° 0 mm 6 mps 736 mmHg 79%
    08:00 +5°C° 0 mm 6 mps 736 mmHg 75%
    09:00 +6°C° 0 mm 7 mps 736 mmHg 72%
    10:00 +9°C° 0 mm 7 mps 736 mmHg 69%
    11:00 +11°C° 0 mm 7 mps 735 mmHg 66%
    12:00 +12°C° 0 mm 7 mps 735 mmHg 62%
    13:00 +14°C° 0 mm 6 mps 735 mmHg 61%
    14:00 +15°C° 0 mm 6 mps 734 mmHg 60%
    15:00 +16°C° 0 mm 5 mps 734 mmHg 59%
    16:00 +15°C° 0 mm 4 mps 734 mmHg 66%
    17:00 +14°C° 0 mm 3 mps 734 mmHg 73%
    18:00 +14°C° 0 mm 2 mps 735 mmHg 79%
    19:00 +11°C° 0.2 mm 3 mps 735 mmHg 81%
    20:00 +10°C° 0.2 mm 4 mps 736 mmHg 83%
    21:00 +7°C° 0.2 mm 5 mps 737 mmHg 85%
    22:00 +5°C° 0 mm 5 mps 737 mmHg 84%
    23:00 +2°C° 0 mm 6 mps 738 mmHg 82%
    Show more